When you browse on this site, cookies collect data to enhance your experience and personalize the content and advertising you see.
Visit our Privacy Policy to learn more. By continuing to use the site, you agree to this use of cookies and data.
  • In Romania
  • List of Countries
  • For 7 days
  • Water Temperature
  • Satellite Maps
  • Weather Map
  • Weather Widgets
  • user-avatar
    Login

    Hourly Weather Juticalpa

    Today, 24 March, Sunday

    Time Temperature Precipitation Wind Pressure Humidity
    00:00 +20°C° 0 mm 1 mps 730 mmHg 88%
    01:00 +17°C° 0 mm 0 mps 730 mmHg 90%
    02:00 +17°C° 0 mm 0 mps 730 mmHg 92%
    03:00 +17°C° 0 mm 0 mps 729 mmHg 94%
    04:00 +16°C° 0 mm 0 mps 729 mmHg 94%
    05:00 +16°C° 0 mm 0 mps 730 mmHg 94%
    06:00 +16°C° 0 mm 0 mps 730 mmHg 95%
    07:00 +20°C° 0 mm 0 mps 730 mmHg 80%
    08:00 +23°C° 0 mm 0 mps 731 mmHg 65%
    09:00 +27°C° 0 mm 0 mps 731 mmHg 50%
    10:00 +29°C° 0 mm 0 mps 731 mmHg 44%
    11:00 +32°C° 0 mm 1 mps 730 mmHg 37%
    12:00 +34°C° 0 mm 1 mps 730 mmHg 30%
    13:00 +35°C° 0 mm 2 mps 729 mmHg 28%
    14:00 +36°C° 0 mm 2 mps 728 mmHg 25%
    15:00 +36°C° 0 mm 2 mps 727 mmHg 23%
    16:00 +34°C° 0 mm 2 mps 727 mmHg 27%
    17:00 +31°C° 0 mm 1 mps 728 mmHg 32%
    18:00 +29°C° 0 mm 1 mps 728 mmHg 36%
    19:00 +27°C° 0 mm 1 mps 728 mmHg 48%
    20:00 +25°C° 0 mm 1 mps 729 mmHg 60%
    21:00 +23°C° 0 mm 1 mps 730 mmHg 72%
    22:00 +23°C° 0 mm 1 mps 730 mmHg 77%
    23:00 +22°C° 0 mm 1 mps 730 mmHg 81%

    Tomorrow, 25 March, Monday

    Time Temperature Precipitation Wind Pressure Humidity
    00:00 +20°C° 0 mm 0 mps 730 mmHg 86%
    01:00 +20°C° 0 mm 0 mps 729 mmHg 85%
    02:00 +20°C° 0 mm 0 mps 729 mmHg 85%
    03:00 +21°C° 0 mm 0 mps 728 mmHg 84%
    04:00 +20°C° 0 mm 0 mps 729 mmHg 86%
    05:00 +20°C° 0 mm 0 mps 729 mmHg 87%
    06:00 +19°C° 0 mm 0 mps 729 mmHg 89%
    07:00 +22°C° 0 mm 0 mps 729 mmHg 76%
    08:00 +25°C° 0 mm 0 mps 730 mmHg 63%
    09:00 +28°C° 0 mm 0 mps 730 mmHg 50%
    10:00 +32°C° 0 mm 1 mps 730 mmHg 44%
    11:00 +33°C° 0 mm 1 mps 729 mmHg 38%
    12:00 +34°C° 0 mm 1 mps 728 mmHg 32%
    13:00 +36°C° 0 mm 2 mps 728 mmHg 31%
    14:00 +36°C° 0 mm 2 mps 727 mmHg 29%
    15:00 +36°C° 0 mm 2 mps 726 mmHg 28%
    16:00 +34°C° 0 mm 2 mps 726 mmHg 33%
    17:00 +31°C° 0 mm 2 mps 727 mmHg 38%
    18:00 +29°C° 0 mm 2 mps 727 mmHg 43%
    19:00 +28°C° 0 mm 2 mps 728 mmHg 55%
    20:00 +26°C° 0 mm 1 mps 728 mmHg 67%
    21:00 +24°C° 0 mm 1 mps 729 mmHg 79%
    22:00 +23°C° 0 mm 1 mps 729 mmHg 83%
    23:00 +21°C° 0 mm 0 mps 729 mmHg 87%

    Day after tomorrow, 26 March, Tuesday

    Time Temperature Precipitation Wind Pressure Humidity
    00:00 +20°C° 0 mm 0 mps 729 mmHg 91%
    01:00 +20°C° 0 mm 0 mps 728 mmHg 92%
    02:00 +20°C° 0 mm 0 mps 728 mmHg 94%
    03:00 +19°C° 0 mm 0 mps 727 mmHg 95%
    04:00 +19°C° 0 mm 0 mps 728 mmHg 96%
    05:00 +19°C° 0 mm 0 mps 728 mmHg 96%
    06:00 +18°C° 0 mm 0 mps 728 mmHg 96%
    07:00 +22°C° 0 mm 0 mps 729 mmHg 80%
    08:00 +27°C° 0 mm 1 mps 730 mmHg 64%
    09:00 +30°C° 0 mm 1 mps 730 mmHg 48%
    10:00 +31°C° 0 mm 1 mps 730 mmHg 40%
    11:00 +34°C° 0 mm 2 mps 729 mmHg 31%
    12:00 +36°C° 0 mm 2 mps 728 mmHg 23%
    13:00 +36°C° 0 mm 2 mps 728 mmHg 22%
    14:00 +37°C° 0 mm 2 mps 727 mmHg 22%
    15:00 +37°C° 0 mm 2 mps 726 mmHg 21%
    16:00 +35°C° 0 mm 2 mps 726 mmHg 27%
    17:00 +32°C° 0 mm 2 mps 727 mmHg 34%
    18:00 +30°C° 0 mm 2 mps 727 mmHg 41%
    19:00 +28°C° 0 mm 2 mps 728 mmHg 50%
    20:00 +26°C° 0 mm 2 mps 728 mmHg 60%
    21:00 +24°C° 0 mm 1 mps 729 mmHg 69%
    22:00 +23°C° 0 mm 1 mps 729 mmHg 76%
    23:00 +22°C° 0 mm 1 mps 729 mmHg 83%

    27 March, Wednesday

    Time Temperature Precipitation Wind Pressure Humidity
    00:00 +21°C° 0 mm 1 mps 729 mmHg 90%
    01:00 +21°C° 0 mm 1 mps 728 mmHg 91%
    02:00 +20°C° 0 mm 1 mps 728 mmHg 92%
    03:00 +20°C° 0 mm 1 mps 728 mmHg 93%
    04:00 +20°C° 0 mm 1 mps 728 mmHg 94%
    05:00 +20°C° 0 mm 1 mps 728 mmHg 94%
    06:00 +20°C° 0 mm 1 mps 729 mmHg 94%
    07:00 +23°C° 0 mm 1 mps 729 mmHg 80%
    08:00 +26°C° 0 mm 1 mps 730 mmHg 66%
    09:00 +30°C° 0 mm 1 mps 730 mmHg 52%
    10:00 +31°C° 0 mm 2 mps 730 mmHg 48%
    11:00 +32°C° 0 mm 2 mps 729 mmHg 44%
    12:00 +34°C° 0 mm 3 mps 729 mmHg 40%
    13:00 +34°C° 0.1 mm 3 mps 728 mmHg 42%
    14:00 +33°C° 0.1 mm 3 mps 727 mmHg 43%
    15:00 +33°C° 0.1 mm 3 mps 727 mmHg 45%
    16:00 +30°C° 0.2 mm 3 mps 727 mmHg 52%
    17:00 +29°C° 0.2 mm 2 mps 728 mmHg 60%
    18:00 +27°C° 0.2 mm 2 mps 728 mmHg 67%
    19:00 +25°C° 0 mm 2 mps 729 mmHg 74%
    20:00 +24°C° 0 mm 1 mps 729 mmHg 81%
    21:00 +23°C° 0 mm 1 mps 730 mmHg 88%
    22:00 +22°C° 0 mm 1 mps 729 mmHg 90%
    23:00 +22°C° 0 mm 1 mps 729 mmHg 92%

    28 March, Thursday

    Time Temperature Precipitation Wind Pressure Humidity
    00:00 +21°C° 0 mm 1 mps 729 mmHg 95%
    01:00 +21°C° 0 mm 1 mps 729 mmHg 95%
    02:00 +20°C° 0 mm 1 mps 728 mmHg 95%
    03:00 +20°C° 0 mm 1 mps 728 mmHg 96%
    04:00 +20°C° 0 mm 1 mps 729 mmHg 96%
    05:00 +20°C° 0 mm 1 mps 729 mmHg 96%
    06:00 +20°C° 0 mm 1 mps 729 mmHg 96%
    07:00 +23°C° 0 mm 1 mps 730 mmHg 81%
    08:00 +26°C° 0 mm 1 mps 730 mmHg 67%
    09:00 +29°C° 0 mm 1 mps 731 mmHg 53%
    10:00 +30°C° 0 mm 1 mps 730 mmHg 48%
    11:00 +31°C° 0 mm 2 mps 730 mmHg 43%
    12:00 +34°C° 0 mm 2 mps 729 mmHg 38%
    13:00 +34°C° 0 mm 2 mps 729 mmHg 38%
    14:00 +32°C° 0 mm 2 mps 728 mmHg 38%
    15:00 +32°C° 0 mm 2 mps 727 mmHg 38%
    16:00 +31°C° 0 mm 2 mps 728 mmHg 41%
    17:00 +30°C° 0 mm 2 mps 728 mmHg 45%
    18:00 +28°C° 0 mm 1 mps 728 mmHg 48%
    19:00 +27°C° 0 mm 1 mps 729 mmHg 54%
    20:00 +25°C° 0 mm 1 mps 729 mmHg 61%
    21:00 +23°C° 0 mm 1 mps 730 mmHg 67%
    22:00 +22°C° 0 mm 1 mps 730 mmHg 73%
    23:00 +21°C° 0 mm 1 mps 729 mmHg 79%

    29 March, Friday

    Time Temperature Precipitation Wind Pressure Humidity
    00:00 +20°C° 0 mm 1 mps 729 mmHg 85%
    01:00 +18°C° 0 mm 0 mps 729 mmHg 88%
    02:00 +17°C° 0 mm 0 mps 729 mmHg 91%
    03:00 +17°C° 0 mm 0 mps 728 mmHg 93%
    04:00 +16°C° 0 mm 0 mps 729 mmHg 93%
    05:00 +16°C° 0 mm 0 mps 729 mmHg 93%
    06:00 +16°C° 0 mm 0 mps 729 mmHg 93%
    07:00 +22°C° 0 mm 1 mps 730 mmHg 78%
    08:00 +25°C° 0 mm 1 mps 730 mmHg 63%
    09:00 +29°C° 0 mm 1 mps 731 mmHg 47%
    10:00 +31°C° 0 mm 1 mps 730 mmHg 43%
    11:00 +32°C° 0 mm 2 mps 729 mmHg 38%
    12:00 +35°C° 0 mm 2 mps 729 mmHg 33%
    13:00 +35°C° 0 mm 2 mps 728 mmHg 33%
    14:00 +36°C° 0 mm 2 mps 727 mmHg 33%
    15:00 +36°C° 0 mm 2 mps 727 mmHg 32%
    16:00 +34°C° 0 mm 3 mps 727 mmHg 41%
    17:00 +31°C° 0 mm 3 mps 727 mmHg 49%
    18:00 +29°C° 0 mm 3 mps 728 mmHg 58%
    19:00 +27°C° 0 mm 2 mps 728 mmHg 66%
    20:00 +26°C° 0 mm 2 mps 729 mmHg 73%
    21:00 +24°C° 0 mm 1 mps 729 mmHg 81%
    22:00 +24°C° 0 mm 1 mps 729 mmHg 82%
    23:00 +23°C° 0 mm 1 mps 729 mmHg 83%
    Show more